Weather in Bilyutay

Russia / Republic of Buryatia     50°46′39″N   107°05′52″E
temp.,
°C
wind,
m/s
gust,
m/s
humid.,
%
clouds,
%
prec.,
mm/h
press.,
hPa
HPBL,
m
20 april, tue
tue2023:00+7se3440100 0.0 100546
02:00+6sse3341100 0.0 100440
05:00+4s3246100 0.0 100428
08:00+6n5945100 0.0 1008577
11:00+9n454391 0.0 1007828
14:00+13n4333100 0.0 10041139
17:00+15n44300 0.0 10021296
20:00+6nne61149100 0.0 1006552
21 april, wed
wed2123:00+3n48630 0.0 1007389
02:000nne37715 0.0 1008260
05:00−2n38795 0.0 1012355
08:00+1n6958100 0.0 1014830
11:00+4n784176 0.0 10141256
14:00+6nnw883687 0.0 10141584
17:00+5n783798 0.0 10151609
20:000n61146100 0.0 10201115
22 april, thu
thu2223:00−1nne71248100 0.1 10221024
02:00−2nne51050100 0.4 10251131
05:00−3nne5105990 0.0 1027860
08:00−2nne584890 0.0 1028873
11:00+2nne5628100 0.0 10271364
14:00+5n6623100 0.0 10261825
17:00+2n7743100 0.3 10301400
20:00−3n51078100 0.8 1035752
23 april, fri
fri2323:00−2nne4840100 0.1 1036884
02:00−2n4947100 0.2 1039729
05:00−3nne31055100 0.0 1040660
08:00−2nne4744100 0.0 1042591
11:00+2nne5633100 0.0 10411031
14:00+6nne553189 0.0 10391621
17:00+7nne5529100 0.0 10381865
20:00+3n4934100 0.0 1040384
24 april, sat
sat2423:00+2n3739100 0.0 1041385
02:00+1n2446100 0.0 1041205
05:000nnw224797 0.0 1040128
08:00+2w014196 0.0 1040358
11:00+8s2345100 0.0 1036856
14:00+11ssw334398 0.0 10321253
17:00+12s3445100 0.0 10291263
20:00+8s2267100 0.0 102815